Flag for Germany Weather past 2 weeks in Haltern am See, North Rhine-Westphalia, Germany

Now
60 °F

Passing clouds.


Feels Like: 60 °F
Forecast: 63 / 89 °F
Wind: 1 mph from North

Location: Muenster / Osnabrueck

Current Time: Aug 30, 2015 at 1:57:47 AM

Latest Report: Aug 30, 2015 at 1:00 AM


Visibility: 19 mi

Pressure: 30.11 "Hg

Humidity: 90%

Dew point: 57 °F

Location of Haltern am SeeLocation

Historic Weather in Haltern am See — Graph

°F

Haltern am See temperature yesterday

Maximum temperature yesterday: 74 °F (at 5:00 PM)
Minimum temperature yesterday: 50 °F (at 4:00 AM)
Average temperature yesterday: 63 °F

Past Weeks' High & Low Weather Summary

 TemperatureHumidityPressure
High78 °F (Aug 26, 4:00 PM)100% (Aug 15, 11:00 PM)30.27 "Hg (Aug 15, 11:00 PM)
Low50 °F (Aug 29, 4:00 AM)34% (Aug 22, 5:00 PM)29.54 "Hg (Aug 24, 6:00 PM)
Average64 °F75%29.96 "Hg
* Reported Aug 14 11:00 PM — Aug 29 11:00 PM, Haltern am See, Weather by CustomWeather, © 2015

Note: Actual official high and low records may vary slightly from our data, if they occured in-between our weather recording intervals... More about our weather records

Advertising

Haltern am See weather history for previous 24 hours

 ConditionsComfort  
Time TempWeatherWind HumidityBarometerVisibility
11:00 PM
Sat, Aug 29
63 °FPassing clouds.1 mph83%30.13 "Hg19 mi
10:00 PM65 °FPassing clouds.2 mph79%30.13 "Hg22 mi
9:00 PM67 °FPassing clouds.1 mph75%30.13 "Hg22 mi
8:00 PM70 °FPartly sunny.1 mph66%30.13 "Hg22 mi
7:00 PM74 °FPassing clouds.1 mph52%30.13 "Hg25 mi
6:00 PM74 °FPassing clouds.2 mph50%30.14 "Hg25 mi
5:00 PM74 °FScattered clouds.1 mph48%30.16 "Hg25 mi
4:00 PM74 °FScattered clouds.2 mph51%30.16 "Hg19 mi
3:00 PM73 °FScattered clouds.1 mph49%30.18 "Hg19 mi
2:00 PM72 °FScattered clouds.2 mph53%30.19 "Hg19 mi
1:00 PM70 °FScattered clouds.3 mph53%30.22 "Hg19 mi
12:00 PM69 °FPassing clouds.2 mph62%30.22 "Hg16 mi
11:00 AM65 °FPassing clouds.1 mph70%30.23 "Hg16 mi
10:00 AM61 °FPassing clouds.2 mph79%30.23 "Hg9 mi
9:00 AM58 °FSunny.1 mph87%30.24 "Hg5 mi
7:00 AM51 °FFog.1 mph98%30.21 "Hg1 mi
6:00 AM51 °FFog.2 mph100%30.20 "Hg5 mi
5:00 AM50 °FFog.2 mph99%30.21 "Hg6 mi
4:00 AM50 °FFog.1 mph99%30.20 "Hg7 mi
3:00 AM51 °FFog.No wind99%30.19 "Hg9 mi
2:00 AM51 °FFog.1 mph98%30.19 "Hg1 mi
1:00 AM53 °FFog.1 mph97%30.19 "Hg8 mi
Weather by CustomWeather, © 2015

See weather overviewHow to use our weather pages